Location: Invercargill
(46.4000°S, 168.3500°E)
Time: 15:36:25
(UTC+12:00)

Vanguard 1 - All Passes

Search period start: 18 July 2019 00:00
Search period end: 28 July 2019 00:00
Orbit: 653 x 3830 km, 34.3° (Epoch: 17 July)

Date Brightness Start Highest point End Pass type
(mag) Time Alt. Az. Time Alt. Az. Time Alt. Az.
18 Jul - 09:15:27 10° NNW 09:19:46 18° N 09:23:12 10° NE daylight
18 Jul - 11:35:38 10° NW 11:39:05 19° N 11:42:19 10° NE daylight
19 Jul - 07:17:08 10° N 07:20:39 13° NNE 07:23:35 10° NE visible
19 Jul - 09:35:54 10° NW 09:40:35 21° N 09:44:15 10° NE daylight
19 Jul - 11:56:40 10° NW 11:59:49 17° NNW 12:02:48 10° NNE daylight
20 Jul - 07:36:21 10° NNW 07:41:35 17° NNE 07:45:32 10° NE visible
20 Jul - 09:56:35 10° NW 10:01:22 23° N 10:05:07 10° NE daylight
20 Jul - 12:17:56 10° NW 12:20:31 15° NNW 12:23:01 10° NNE daylight
21 Jul - 05:41:22 10° NNE 05:41:52 10° NNE 05:42:22 10° NNE visible
21 Jul - 07:56:20 10° NW 08:02:29 21° N 08:06:54 10° ENE daylight
21 Jul - 10:17:26 10° WNW 10:22:09 23° N 10:25:52 10° NE daylight
21 Jul - 12:39:49 10° NW 12:41:11 11° NNW 12:42:33 10° N daylight
22 Jul - 05:57:25 10° N 06:02:52 15° NNE 06:07:08 10° NE visible
22 Jul - 08:16:43 10° NW 08:23:22 24° N 08:27:58 10° ENE daylight
22 Jul - 10:38:26 10° WNW 10:42:53 22° NNW 10:46:28 10° NE daylight
23 Jul - 06:16:28 10° NNW 06:23:52 19° NNE 06:29:08 10° ENE visible
23 Jul - 08:37:23 10° NW 08:44:14 27° N 08:48:53 10° ENE daylight
23 Jul - 10:59:35 10° WNW 11:03:34 19° NNW 11:06:53 10° NNE daylight
24 Jul - 04:20:50 10° NNE 04:23:34 11° NNE 04:26:01 10° NE visible
24 Jul - 06:36:17 10° NNW 06:44:51 24° NNE 06:50:33 10° ENE visible
24 Jul - 08:58:14 10° WNW 09:05:03 28° N 09:09:41 10° NE daylight
24 Jul - 11:20:58 10° WNW 11:24:13 16° NNW 11:27:03 10° NNE daylight
25 Jul - 04:37:16 10° N 04:44:37 16° NNE 04:50:14 10° ENE visible
25 Jul - 06:56:34 10° NW 07:05:48 28° N 07:11:42 10° ENE visible
25 Jul - 09:19:14 10° WNW 09:25:50 28° N 09:30:23 10° NE daylight
25 Jul - 11:42:51 10° NW 11:44:48 12° NNW 11:46:35 10° N daylight
26 Jul - 04:55:58 10° NNW 05:05:39 21° NNE 05:12:24 10° ENE visible
26 Jul - 07:17:10 10° NW 07:26:44 31° N 07:32:40 10° ENE visible
26 Jul - 09:40:22 10° WNW 09:46:34 26° NNW 09:50:56 10° NE daylight
27 Jul - 03:01:51 10° NNE 03:04:44 11° NE 03:07:24 10° NE visible
27 Jul - 05:15:30 10° NNW 05:26:41 26° NNE 05:33:58 10° ENE visible
27 Jul - 07:38:00 10° WNW 07:47:38 34° N 07:53:32 10° ENE visible
27 Jul - 10:01:37 10° WNW 10:07:14 23° NNW 10:11:21 10° NNE daylight
